Location: Bratsk-Energetik
(56.3300°N, 101.7600°E)
Time: 21:06:46
(UTC+08:00)

ISS - Pass Details

Date: 20 July 2018
Orbit: 402 x 408 km, 51.6° (Epoch: 23 July)

Event Time Altitude Azimuth Distance (km) Brightness Sun altitude
Rises 03:38:50 0° 271° (W) 2,332 -0.3 -7.5°
Reaches altitude 10° 03:41:13 10° 255° (WSW) 1,470 -1.4 -7.3°
Maximum altitude 03:43:47 21° 204° (SSW) 978 -2.5 -7.1°
Drops below altitude 10° 03:46:20 10° 153° (SSE) 1,468 -1.3 -6.9°
Sets 03:48:44 0° 136° (SE) 2,327 -0.1 -6.7°
